| time (UTC) | temp F | wind direction | speed knots | gust knots | rain 1hr in | rain 24hr in | rain mn in | humidity % | barometer mb |
| 20260507064742 | 58 | 0.0 | 0.0 | 0.00 | 0.00 | 0.00 | 59 | 957.4 | |
| 20260507064242 | 58 | 0.0 | 0.0 | 0.00 | 0.00 | 0.00 | 59 | 957.4 | |
| 20260507063742 | 58 | 0.0 | 0.0 | 0.00 | 0.00 | 0.00 | 60 | 957.5 | |
| 20260507063242 | 58 | 0.0 | 0.0 | 0.00 | 0.00 | 0.00 | 60 | 957.5 | |
| 20260507062742 | 58 | 0.0 | 0.0 | 0.00 | 0.00 | 0.00 | 61 | 957.5 | |
| 20260507062242 | 58 | 0.0 | 0.0 | 0.00 | 0.00 | 0.00 | 61 | 957.5 | |
| 20260507061742 | 58 | 0.0 | 0.0 | 0.00 | 0.00 | 0.00 | 61 | 957.4 | |
| 20260507061242 | 57 | 0.0 | 0.0 | 0.00 | 0.00 | 0.00 | 62 | 957.4 | |
| 20260507060742 | 57 | 0.0 | 0.0 | 0.00 | 0.00 | 0.00 | 62 | 957.3 | |
| 20260507060242 | 57 | 0.0 | 0.0 | 0.00 | 0.00 | 0.00 | 63 | 957.3 | |
| 20260507055742 | 57 | 0.0 | 0.0 | 0.00 | 0.00 | 0.00 | 62 | 957.4 | |
| 20260507055242 | 58 | 0.0 | 0.0 | 0.00 | 0.00 | 0.00 | 62 | 957.4 | |
| 20260507054742 | 57 | 0.0 | 0.0 | 0.00 | 0.00 | 0.00 | 61 | 957.3 | |
| 20260507054242 | 57 | 0.0 | 0.0 | 0.00 | 0.00 | 0.00 | 62 | 957.4 | |
| 20260507053742 | 58 | 0.0 | 0.0 | 0.00 | 0.00 | 0.00 | 60 | 957.3 | |
| 20260507053242 | 57 | 0.0 | 0.0 | 0.00 | 0.00 | 0.00 | 62 | 957.2 | |
| 20260507052742 | 57 | 0.0 | 0.0 | 0.00 | 0.00 | 0.00 | 64 | 957.1 | |
| 20260507052242 | 57 | 0.0 | 0.0 | 0.00 | 0.00 | 0.00 | 65 | 956.9 | |
| 20260507051742 | 56 | 0.0 | 0.0 | 0.00 | 0.00 | 0.00 | 65 | 956.9 | |
| 20260507051242 | 57 | 0.0 | 0.0 | 0.00 | 0.00 | 0.00 | 65 | 956.8 | |
| 20260507050742 | 57 | 0.0 | 0.0 | 0.00 | 0.00 | 0.00 | 64 | 956.8 | |
| 20260507050242 | 56 | 0.0 | 0.0 | 0.00 | 0.00 | 0.00 | 65 | 956.8 | |
| 20260507045742 | 56 | 0.0 | 0.0 | 0.00 | 0.00 | 0.00 | 65 | 956.8 | |
| 20260507045243 | 56 | 0.0 | 0.0 | 0.00 | 0.00 | 0.00 | 66 | 956.7 | |
| 20260507044742 | 56 | 0.0 | 0.0 | 0.00 | 0.00 | 0.00 | 65 | 956.6 | |
| 20260507044242 | 56 | 0.0 | 0.0 | 0.00 | 0.00 | 0.00 | 65 | 956.6 | |
| 20260507043742 | 57 | 0.0 | 0.0 | 0.00 | 0.00 | 0.00 | 65 | 956.5 | |
| 20260507043242 | 57 | 0.0 | 0.0 | 0.00 | 0.00 | 0.00 | 64 | 956.5 | |
| 20260507042742 | 57 | 0.0 | 0.0 | 0.00 | 0.00 | 0.00 | 65 | 956.5 | |
| 20260507042242 | 56 | 0.0 | 0.0 | 0.00 | 0.00 | 0.00 | 65 | 956.5 | |
| 20260507041742 | 57 | 0.0 | 0.0 | 0.00 | 0.00 | 0.00 | 64 | 956.4 | |
| 20260507041242 | 58 | 0.0 | 0.0 | 0.00 | 0.00 | 0.00 | 61 | 956.4 | |
| 20260507040742 | 58 | 0.0 | 0.0 | 0.00 | 0.00 | 0.00 | 62 | 956.2 | |
| 20260507040242 | 58 | 0.0 | 0.0 | 0.00 | 0.00 | 0.00 | 62 | 956.3 | |
| 20260507035314 | 57 | 0.0 | 0.0 | 0.00 | 0.00 | 0.00 | 63 | 956.2 | |
| 20260507034814 | 57 | 0.0 | 0.0 | 0.00 | 0.00 | 0.00 | 63 | 956.2 | |
| 20260507034314 | 58 | 0.0 | 0.0 | 0.00 | 0.00 | 0.00 | 63 | 956.1 | |
| 20260507033814 | 58 | 0.0 | 0.0 | 0.00 | 0.00 | 0.00 | 62 | 956.1 | |
| 20260507033314 | 57 | 0.0 | 0.0 | 0.00 | 0.00 | 0.00 | 64 | 956.1 | |
| 20260507032814 | 58 | 0.0 | 0.0 | 0.00 | 0.00 | 0.00 | 63 | 955.9 | |
| 20260507032314 | 58 | 0.0 | 0.0 | 0.00 | 0.00 | 0.00 | 63 | 955.9 | |
| 20260507031814 | 58 | 0.0 | 0.0 | 0.00 | 0.00 | 0.00 | 62 | 955.9 | |
| 20260507031314 | 57 | 0.0 | 0.0 | 0.00 | 0.00 | 0.00 | 63 | 955.9 | |
| 20260507030814 | 58 | 0.0 | 0.0 | 0.00 | 0.00 | 0.00 | 62 | 956.0 | |
| 20260507030314 | 58 | 0.0 | 0.0 | 0.00 | 0.00 | 0.00 | 61 | 955.9 | |
| 20260507025814 | 58 | 0.0 | 0.0 | 0.00 | 0.00 | 0.00 | 61 | 955.9 | |
| 20260507025314 | 58 | 0.0 | 0.0 | 0.00 | 0.00 | 0.00 | 61 | 955.9 | |
| 20260507024814 | 58 | 0.0 | 0.0 | 0.00 | 0.00 | 0.00 | 61 | 955.8 | |
| 20260507024314 | 58 | 0.0 | 0.0 | 0.00 | 0.00 | 0.00 | 60 | 955.8 | |
| 20260507023814 | 58 | 0.0 | 0.0 | 0.00 | 0.00 | 0.00 | 60 | 955.7 | |
| 20260507023314 | 58 | 0.0 | 0.0 | 0.00 | 0.00 | 0.00 | 60 | 955.7 | |
| 20260507022814 | 58 | 0.0 | 0.0 | 0.00 | 0.00 | 0.00 | 60 | 955.7 | |
| 20260507022314 | 58 | 0.0 | 0.0 | 0.00 | 0.00 | 0.00 | 61 | 955.8 | |
| 20260507021814 | 58 | 0.0 | 0.0 | 0.00 | 0.00 | 0.00 | 60 | 955.8 | |
| 20260507021314 | 59 | 0.0 | 0.0 | 0.00 | 0.00 | 0.00 | 60 | 955.7 | |
| 20260507020814 | 59 | 0.0 | 0.0 | 0.00 | 0.00 | 0.00 | 60 | 955.7 | |
| 20260507020314 | 59 | 0.0 | 0.0 | 0.00 | 0.00 | 0.00 | 61 | 955.7 | |
| 20260507015814 | 59 | 0.0 | 0.0 | 0.00 | 0.00 | 0.00 | 61 | 955.7 | |
| 20260507015314 | 58 | 0.0 | 0.0 | 0.00 | 0.00 | 0.00 | 62 | 955.5 | |
| 20260507014814 | 58 | 0.0 | 0.0 | 0.00 | 0.00 | 0.00 | 62 | 955.5 | |
| 20260507014314 | 58 | 0.0 | 0.0 | 0.00 | 0.00 | 0.00 | 63 | 955.5 | |
| 20260507013814 | 59 | 0.0 | 0.0 | 0.00 | 0.00 | 0.00 | 62 | 955.5 | |
| 20260507013314 | 58 | 0.0 | 0.0 | 0.00 | 0.00 | 0.00 | 63 | 955.2 | |
| 20260507012814 | 59 | 0.0 | 0.0 | 0.00 | 0.00 | 0.00 | 63 | 955.2 | |
| 20260507012314 | 60 | 0.0 | 0.0 | 0.00 | 0.00 | 0.00 | 62 | 955.3 | |
| 20260507011814 | 59 | 0.0 | 0.0 | 0.00 | 0.00 | 0.00 | 63 | 955.2 | |
| 20260507011314 | 59 | 0.0 | 0.0 | 0.00 | 0.00 | 0.00 | 65 | 955.1 | |
| 20260507010814 | 59 | 0.0 | 0.0 | 0.00 | 0.00 | 0.00 | 66 | 954.9 | |
| 20260507010314 | 58 | 0.0 | 0.0 | 0.00 | 0.00 | 0.00 | 67 | 955.0 | |
| 20260507005814 | 58 | 0.0 | 0.0 | 0.00 | 0.00 | 0.00 | 68 | 954.7 | |
| 20260507005314 | 59 | 0.0 | 0.0 | 0.00 | 0.00 | 0.00 | 67 | 954.8 | |
| 20260507004814 | 59 | 0.0 | 0.0 | 0.00 | 0.00 | 0.00 | 67 | 954.7 | |
| 20260507004314 | 59 | 0.0 | 0.0 | 0.00 | 0.00 | 0.00 | 67 | 954.7 | |
| 20260507003814 | 60 | 0.0 | 0.0 | 0.00 | 0.00 | 0.00 | 66 | 954.8 | |
| 20260507003314 | 59 | 0.0 | 0.0 | 0.00 | 0.00 | 0.00 | 67 | 954.7 | |
| 20260507002814 | 59 | 0.0 | 0.0 | 0.00 | 0.00 | 0.00 | 68 | 954.7 | |
| 20260507002315 | 59 | 0.0 | 0.0 | 0.00 | 0.00 | 0.00 | 68 | 954.9 | |
| 20260507001814 | 59 | 0.0 | 0.0 | 0.00 | 0.00 | 0.00 | 67 | 954.8 | |
| 20260507001314 | 60 | 0.0 | 0.0 | 0.00 | 0.00 | 0.00 | 65 | 954.8 | |
| 20260507000814 | 60 | 0.0 | 0.0 | 0.00 | 0.00 | 0.00 | 66 | 954.8 | |
| 20260507000314 | 59 | 0.0 | 0.0 | 0.00 | 0.00 | 0.00 | 67 | 954.7 | |
| 20260506235814 | 59 | 0.0 | 0.0 | 0.00 | 0.00 | 0.00 | 66 | 954.8 | |
| 20260506235314 | 60 | 0.0 | 0.0 | 0.00 | 0.00 | 0.00 | 66 | 954.7 | |
| 20260506234814 | 59 | 0.0 | 0.0 | 0.00 | 0.00 | 0.00 | 67 | 954.4 | |
| 20260506234314 | 60 | 0.0 | 0.0 | 0.00 | 0.00 | 0.00 | 66 | 954.5 | |
| 20260506233814 | 60 | 0.0 | 0.0 | 0.00 | 0.00 | 0.00 | 66 | 954.6 | |
| 20260506233314 | 59 | 0.0 | 0.0 | 0.00 | 0.00 | 0.00 | 67 | 954.2 | |
| 20260506232814 | 60 | 0.0 | 0.0 | 0.00 | 0.00 | 0.00 | 67 | 954.3 | |
| 20260506232314 | 60 | 0.0 | 0.0 | 0.00 | 0.00 | 0.00 | 68 | 954.3 | |
| 20260506231814 | 61 | 0.0 | 0.0 | 0.00 | 0.00 | 0.00 | 66 | 954.2 | |
| 20260506231314 | 61 | 0.0 | 0.0 | 0.00 | 0.00 | 0.00 | 67 | 954.0 | |
| 20260506230814 | 61 | 0.0 | 0.0 | 0.00 | 0.00 | 0.00 | 67 | 953.8 | |
| 20260506230314 | 61 | 0.0 | 0.0 | 0.00 | 0.00 | 0.00 | 68 | 953.5 | |
| 20260506225814 | 61 | 0.0 | 0.0 | 0.00 | 0.00 | 0.00 | 70 | 953.7 | |
| 20260506225314 | 60 | 0.0 | 0.0 | 0.00 | 0.00 | 0.00 | 71 | 953.6 | |
| 20260506224814 | 61 | 0.0 | 0.0 | 0.00 | 0.00 | 0.00 | 71 | 953.3 | |
| 20260506224314 | 61 | 0.0 | 0.0 | 0.00 | 0.00 | 0.00 | 71 | 953.5 | |
| 20260506223814 | 61 | 0.0 | 0.0 | 0.00 | 0.00 | 0.00 | 71 | 953.4 | |
| 20260506223314 | 61 | 0.0 | 0.0 | 0.00 | 0.00 | 0.00 | 71 | 953.3 | |
| 20260506222814 | 61 | 0.0 | 0.0 | 0.00 | 0.00 | 0.00 | 70 | 953.1 | |
| 20260506222314 | 62 | 0.0 | 0.0 | 0.00 | 0.00 | 0.00 | 69 | 953.0 | |
| 20260506221814 | 61 | 0.0 | 0.0 | 0.00 | 0.00 | 0.00 | 68 | 952.8 | |
| 20260506221314 | 62 | 0.0 | 0.0 | 0.00 | 0.00 | 0.00 | 65 | 952.9 | |
| 20260506220814 | 62 | 0.0 | 0.0 | 0.00 | 0.00 | 0.00 | 65 | 952.8 | |
| 20260506220314 | 62 | 0.0 | 0.0 | 0.00 | 0.00 | 0.00 | 62 | 952.7 | |
| 20260506215814 | 63 | 0.0 | 0.0 | 0.00 | 0.00 | 0.00 | 61 | 952.5 | |
| 20260506215314 | 63 | 0.0 | 0.0 | 0.00 | 0.00 | 0.00 | 60 | 952.6 | |
| 20260506214814 | 63 | 0.0 | 0.0 | 0.00 | 0.00 | 0.00 | 59 | 952.3 | |
| 20260506214314 | 63 | 0.0 | 0.0 | 0.00 | 0.00 | 0.00 | 59 | 952.4 | |
| 20260506213814 | 63 | 0.0 | 0.0 | 0.00 | 0.00 | 0.00 | 58 | 952.1 | |
| 20260506213314 | 64 | 0.0 | 0.0 | 0.00 | 0.00 | 0.00 | 57 | 952.2 | |
| 20260506212814 | 64 | 0.0 | 0.0 | 0.00 | 0.00 | 0.00 | 56 | 952.0 | |
| 20260506212314 | 64 | 0.0 | 0.0 | 0.00 | 0.00 | 0.00 | 55 | 951.8 | |
| 20260506211814 | 64 | 0.0 | 0.0 | 0.00 | 0.00 | 0.00 | 55 | 951.8 | |
| 20260506211314 | 66 | 0.0 | 0.0 | 0.00 | 0.00 | 0.00 | 51 | 951.9 | |
| 20260506210814 | 67 | 0.0 | 0.0 | 0.00 | 0.00 | 0.00 | 46 | 951.6 | |
| 20260506210314 | 70 | 0.0 | 0.0 | 0.00 | 0.00 | 0.00 | 39 | 951.7 | |
| 20260506205814 | 71 | 0.0 | 0.0 | 0.00 | 0.00 | 0.00 | 38 | 951.6 | |
| 20260506205314 | 72 | 0.0 | 0.0 | 0.00 | 0.00 | 0.00 | 36 | 951.4 | |
| 20260506204814 | 73 | 0.0 | 0.0 | 0.00 | 0.00 | 0.00 | 35 | 951.3 | |
| 20260506204314 | 73 | 0.0 | 0.0 | 0.00 | 0.00 | 0.00 | 35 | 951.2 | |
| 20260506203814 | 74 | 0.0 | 0.0 | 0.00 | 0.00 | 0.00 | 34 | 951.1 | |
| 20260506203314 | 74 | 0.0 | 0.0 | 0.00 | 0.00 | 0.00 | 34 | 951.0 | |
| 20260506202814 | 73 | 0.0 | 0.0 | 0.00 | 0.00 | 0.00 | 35 | 951.0 | |
| 20260506202314 | 73 | 0.0 | 0.0 | 0.00 | 0.00 | 0.00 | 35 | 951.0 | |
| 20260506201814 | 72 | 0.0 | 0.0 | 0.00 | 0.00 | 0.00 | 36 | 950.9 | |
| 20260506201314 | 72 | 0.0 | 0.0 | 0.00 | 0.00 | 0.00 | 37 | 950.8 | |
| 20260506200814 | 73 | 0.0 | 0.0 | 0.00 | 0.00 | 0.00 | 37 | 950.8 | |
| 20260506200314 | 73 | 0.0 | 0.0 | 0.00 | 0.00 | 0.00 | 36 | 950.8 | |
| 20260506195814 | 73 | 0.0 | 0.0 | 0.00 | 0.00 | 0.00 | 35 | 950.7 | |
| 20260506195314 | 73 | 0.0 | 0.0 | 0.00 | 0.00 | 0.00 | 35 | 950.7 | |
| 20260506194814 | 73 | 0.0 | 0.0 | 0.00 | 0.00 | 0.00 | 36 | 950.6 | |
| 20260506194314 | 73 | 0.0 | 0.0 | 0.00 | 0.00 | 0.00 | 36 | 950.5 | |
| 20260506193814 | 73 | 0.0 | 0.0 | 0.00 | 0.00 | 0.00 | 35 | 950.4 | |
| 20260506193314 | 74 | 0.0 | 0.0 | 0.00 | 0.00 | 0.00 | 36 | 950.3 | |
| 20260506192814 | 73 | 0.0 | 0.0 | 0.00 | 0.00 | 0.00 | 35 | 950.2 | |
| 20260506192314 | 73 | 0.0 | 0.0 | 0.00 | 0.00 | 0.00 | 36 | 950.2 | |
| 20260506191814 | 73 | 0.0 | 0.0 | 0.00 | 0.00 | 0.00 | 36 | 950.1 | |
| 20260506191314 | 73 | 0.0 | 0.0 | 0.00 | 0.00 | 0.00 | 35 | 950.1 | |
| 20260506190814 | 73 | 0.0 | 0.0 | 0.00 | 0.00 | 0.00 | 36 | 950.0 | |
| 20260506190314 | 73 | 0.0 | 0.0 | 0.00 | 0.00 | 0.00 | 36 | 949.9 | |
| 20260506185814 | 73 | 0.0 | 0.0 | 0.00 | 0.00 | 0.00 | 35 | 949.8 | |
| 20260506185314 | 74 | 0.0 | 0.0 | 0.00 | 0.00 | 0.00 | 35 | 949.9 | |
| 20260506184814 | 74 | 0.0 | 0.0 | 0.00 | 0.00 | 0.00 | 34 | 949.8 | |
| 20260506184314 | 74 | 0.0 | 0.0 | 0.00 | 0.00 | 0.00 | 35 | 949.8 | |
| 20260506183814 | 75 | 0.0 | 0.0 | 0.00 | 0.00 | 0.00 | 34 | 949.9 | |
| 20260506183314 | 74 | 0.0 | 0.0 | 0.00 | 0.00 | 0.00 | 35 | 949.7 | |
| 20260506182814 | 74 | 0.0 | 0.0 | 0.00 | 0.00 | 0.00 | 34 | 949.6 | |
| 20260506182314 | 74 | 0.0 | 0.0 | 0.00 | 0.00 | 0.00 | 34 | 949.5 | |
| 20260506181814 | 74 | 0.0 | 0.0 | 0.00 | 0.00 | 0.00 | 35 | 949.4 | |
| 20260506181314 | 74 | 0.0 | 0.0 | 0.00 | 0.00 | 0.00 | 35 | 949.4 | |
| 20260506180814 | 75 | 0.0 | 0.0 | 0.00 | 0.00 | 0.00 | 35 | 949.3 | |
| 20260506180314 | 74 | 0.0 | 0.0 | 0.00 | 0.00 | 0.00 | 35 | 949.3 | |
| 20260506175814 | 75 | 0.0 | 0.0 | 0.00 | 0.00 | 0.00 | 34 | 949.4 | |
| 20260506175314 | 75 | 0.0 | 0.0 | 0.00 | 0.00 | 0.00 | 34 | 949.3 | |
| 20260506174814 | 75 | 0.0 | 0.0 | 0.00 | 0.00 | 0.00 | 33 | 949.2 | |
| 20260506174314 | 75 | 0.0 | 0.0 | 0.00 | 0.00 | 0.00 | 34 | 949.1 | |
| 20260506173814 | 75 | 0.0 | 0.0 | 0.00 | 0.00 | 0.00 | 34 | 949.1 | |
| 20260506173314 | 75 | 0.0 | 0.0 | 0.00 | 0.00 | 0.00 | 34 | 949.3 | |
| 20260506172814 | 77 | 0.0 | 0.0 | 0.00 | 0.00 | 0.00 | 33 | 949.3 | |
| 20260506172314 | 77 | 0.0 | 0.0 | 0.00 | 0.00 | 0.00 | 33 | 949.2 | |
| 20260506171814 | 76 | 0.0 | 0.0 | 0.00 | 0.00 | 0.00 | 34 | 949.2 | |
| 20260506171314 | 76 | 0.0 | 0.0 | 0.00 | 0.00 | 0.00 | 34 | 949.3 | |
| 20260506170814 | 76 | 0.0 | 0.0 | 0.00 | 0.00 | 0.00 | 33 | 949.3 | |
| 20260506170314 | 77 | 0.0 | 0.0 | 0.00 | 0.00 | 0.00 | 33 | 949.3 | |
| 20260506165814 | 77 | 0.0 | 0.0 | 0.00 | 0.00 | 0.00 | 32 | 949.3 | |
| 20260506165314 | 77 | 0.0 | 0.0 | 0.00 | 0.00 | 0.00 | 32 | 949.2 | |
| 20260506164814 | 78 | 0.0 | 0.0 | 0.00 | 0.00 | 0.00 | 32 | 949.2 | |
| 20260506164314 | 77 | 0.0 | 0.0 | 0.00 | 0.00 | 0.00 | 33 | 949.3 | |
| 20260506163814 | 78 | 0.0 | 0.0 | 0.00 | 0.00 | 0.00 | 32 | 949.3 | |
| 20260506163314 | 78 | 0.0 | 0.0 | 0.00 | 0.00 | 0.00 | 32 | 949.4 | |
| 20260506162814 | 79 | 0.0 | 0.0 | 0.00 | 0.00 | 0.00 | 31 | 949.4 | |
| 20260506162314 | 79 | 0.0 | 0.0 | 0.00 | 0.00 | 0.00 | 31 | 949.4 | |
| 20260506161814 | 79 | 0.0 | 0.0 | 0.00 | 0.00 | 0.00 | 30 | 949.5 | |
| 20260506161314 | 81 | 0.0 | 0.0 | 0.00 | 0.00 | 0.00 | 27 | 949.7 | |
| 20260506160814 | 80 | 0.0 | 0.0 | 0.00 | 0.00 | 0.00 | 26 | 949.7 | |
| 20260506160314 | 82 | 0.0 | 0.0 | 0.00 | 0.00 | 0.00 | 25 | 949.7 | |
| 20260506155814 | 81 | 0.0 | 0.0 | 0.00 | 0.00 | 0.00 | 25 | 949.8 | |
| 20260506155314 | 82 | 0.0 | 0.0 | 0.00 | 0.00 | 0.00 | 25 | 949.7 | |
| 20260506154814 | 82 | 0.0 | 0.0 | 0.00 | 0.00 | 0.00 | 24 | 949.7 | |
| 20260506154314 | 81 | 0.0 | 0.0 | 0.00 | 0.00 | 0.00 | 25 | 949.7 | |
| 20260506153814 | 81 | 0.0 | 0.0 | 0.00 | 0.00 | 0.00 | 25 | 949.8 | |
| 20260506153314 | 82 | 0.0 | 0.0 | 0.00 | 0.00 | 0.00 | 25 | 949.8 | |
| 20260506152814 | 83 | 0.0 | 0.0 | 0.00 | 0.00 | 0.00 | 24 | 949.8 | |
| 20260506152314 | 82 | 0.0 | 0.0 | 0.00 | 0.00 | 0.00 | 25 | 949.8 | |
| 20260506151814 | 83 | 0.0 | 0.0 | 0.00 | 0.00 | 0.00 | 24 | 949.8 | |
| 20260506151314 | 82 | 0.0 | 0.0 | 0.00 | 0.00 | 0.00 | 24 | 949.8 | |
| 20260506150814 | 82 | 0.0 | 0.0 | 0.00 | 0.00 | 0.00 | 25 | 949.8 | |
| 20260506150314 | 80 | 0.0 | 0.0 | 0.00 | 0.00 | 0.00 | 25 | 949.9 | |
| 20260506145814 | 82 | 0.0 | 0.0 | 0.00 | 0.00 | 0.00 | 24 | 949.9 | |
| 20260506145314 | 82 | 0.0 | 0.0 | 0.00 | 0.00 | 0.00 | 24 | 949.9 | |
| 20260506144814 | 81 | 0.0 | 0.0 | 0.00 | 0.00 | 0.00 | 25 | 950.0 | |
| 20260506144314 | 81 | 0.0 | 0.0 | 0.00 | 0.00 | 0.00 | 25 | 949.9 | |
| 20260506143814 | 82 | 0.0 | 0.0 | 0.00 | 0.00 | 0.00 | 24 | 950.0 | |
| 20260506143314 | 82 | 0.0 | 0.0 | 0.00 | 0.00 | 0.00 | 24 | 950.0 | |
| 20260506142814 | 82 | 0.0 | 0.0 | 0.00 | 0.00 | 0.00 | 24 | 950.0 | |
| 20260506142314 | 82 | 0.0 | 0.0 | 0.00 | 0.00 | 0.00 | 24 | 950.0 | |
| 20260506141814 | 82 | 0.0 | 0.0 | 0.00 | 0.00 | 0.00 | 24 | 950.0 | |
| 20260506141314 | 81 | 0.0 | 0.0 | 0.00 | 0.00 | 0.00 | 25 | 950.0 | |
| 20260506140814 | 82 | 0.0 | 0.0 | 0.00 | 0.00 | 0.00 | 24 | 950.1 | |
| 20260506140314 | 82 | 0.0 | 0.0 | 0.00 | 0.00 | 0.00 | 24 | 950.1 | |
| 20260506135814 | 82 | 0.0 | 0.0 | 0.00 | 0.00 | 0.00 | 25 | 950.2 | |
| 20260506135314 | 82 | 0.0 | 0.0 | 0.00 | 0.00 | 0.00 | 24 | 950.2 | |
| 20260506134814 | 81 | 0.0 | 0.0 | 0.00 | 0.00 | 0.00 | 25 | 950.1 | |
| 20260506134314 | 80 | 0.0 | 0.0 | 0.00 | 0.00 | 0.00 | 25 | 950.2 | |
| 20260506133814 | 81 | 0.0 | 0.0 | 0.00 | 0.00 | 0.00 | 26 | 950.2 | |
| 20260506133314 | 81 | 0.0 | 0.0 | 0.00 | 0.00 | 0.00 | 27 | 950.3 | |
| 20260506132814 | 80 | 0.0 | 0.0 | 0.00 | 0.00 | 0.00 | 28 | 950.2 | |
| 20260506132314 | 79 | 0.0 | 0.0 | 0.00 | 0.00 | 0.00 | 28 | 950.2 | |
| 20260506131814 | 79 | 0.0 | 0.0 | 0.00 | 0.00 | 0.00 | 28 | 950.2 | |
| 20260506131314 | 80 | 0.0 | 0.0 | 0.00 | 0.00 | 0.00 | 28 | 950.3 | |
| 20260506130814 | 79 | 0.0 | 0.0 | 0.00 | 0.00 | 0.00 | 28 | 950.4 | |
| 20260506130314 | 79 | 0.0 | 0.0 | 0.00 | 0.00 | 0.00 | 30 | 950.5 | |
| 20260506125814 | 79 | 0.0 | 0.0 | 0.00 | 0.00 | 0.00 | 31 | 950.6 | |
| 20260506125314 | 78 | 0.0 | 0.0 | 0.00 | 0.00 | 0.00 | 31 | 950.5 | |
| 20260506124814 | 78 | 0.0 | 0.0 | 0.00 | 0.00 | 0.00 | 31 | 950.6 | |
| 20260506124314 | 78 | 0.0 | 0.0 | 0.00 | 0.00 | 0.00 | 31 | 950.7 | |
| 20260506123814 | 77 | 0.0 | 0.0 | 0.00 | 0.00 | 0.00 | 31 | 950.6 | |
| 20260506123314 | 76 | 0.0 | 0.0 | 0.00 | 0.00 | 0.00 | 32 | 950.6 | |
| 20260506122814 | 76 | 0.0 | 0.0 | 0.00 | 0.00 | 0.00 | 32 | 950.7 | |
| 20260506122314 | 77 | 0.0 | 0.0 | 0.00 | 0.00 | 0.00 | 32 | 950.8 | |
| 20260506121814 | 78 | 0.0 | 0.0 | 0.00 | 0.00 | 0.00 | 33 | 951.0 | |
| 20260506121314 | 76 | 0.0 | 0.0 | 0.00 | 0.00 | 0.00 | 34 | 951.0 | |
| 20260506120814 | 76 | 0.0 | 0.0 | 0.00 | 0.00 | 0.00 | 33 | 951.0 | |
| 20260506120314 | 76 | 0.0 | 0.0 | 0.00 | 0.00 | 0.00 | 34 | 951.1 | |
| 20260506115814 | 76 | 0.0 | 0.0 | 0.00 | 0.00 | 0.00 | 35 | 951.2 | |
| 20260506115314 | 75 | 0.0 | 0.0 | 0.00 | 0.00 | 0.00 | 34 | 951.2 | |
| 20260506114814 | 75 | 0.0 | 0.0 | 0.00 | 0.00 | 0.00 | 35 | 951.2 | |
| 20260506114314 | 75 | 0.0 | 0.0 | 0.00 | 0.00 | 0.00 | 35 | 951.2 | |
| 20260506113814 | 74 | 0.0 | 0.0 | 0.00 | 0.00 | 0.00 | 35 | 951.3 | |
| 20260506113314 | 75 | 0.0 | 0.0 | 0.00 | 0.00 | 0.00 | 35 | 951.4 | |
| 20260506112814 | 75 | 0.0 | 0.0 | 0.00 | 0.00 | 0.00 | 35 | 951.4 | |
| 20260506112314 | 75 | 0.0 | 0.0 | 0.00 | 0.00 | 0.00 | 36 | 951.5 | |
| 20260506111814 | 75 | 0.0 | 0.0 | 0.00 | 0.00 | 0.00 | 36 | 951.5 | |
| 20260506111314 | 74 | 0.0 | 0.0 | 0.00 | 0.00 | 0.00 | 37 | 951.4 | |
| 20260506110814 | 74 | 0.0 | 0.0 | 0.00 | 0.00 | 0.00 | 37 | 951.5 | |
| 20260506110314 | 74 | 0.0 | 0.0 | 0.00 | 0.00 | 0.00 | 37 | 951.6 | |
| 20260506105814 | 74 | 0.0 | 0.0 | 0.00 | 0.00 | 0.00 | 37 | 951.7 | |
| 20260506105314 | 75 | 0.0 | 0.0 | 0.00 | 0.00 | 0.00 | 37 | 951.8 | |
| 20260506104814 | 75 | 0.0 | 0.0 | 0.00 | 0.00 | 0.00 | 38 | 951.8 | |
| 20260506104314 | 75 | 0.0 | 0.0 | 0.00 | 0.00 | 0.00 | 38 | 951.9 | |
| 20260506103814 | 75 | 0.0 | 0.0 | 0.00 | 0.00 | 0.00 | 38 | 952.1 | |
| 20260506103314 | 74 | 0.0 | 0.0 | 0.00 | 0.00 | 0.00 | 38 | 952.2 | |
| 20260506102814 | 75 | 0.0 | 0.0 | 0.00 | 0.00 | 0.00 | 38 | 952.4 | |
| 20260506102314 | 74 | 0.0 | 0.0 | 0.00 | 0.00 | 0.00 | 38 | 952.3 | |
| 20260506101814 | 74 | 0.0 | 0.0 | 0.00 | 0.00 | 0.00 | 38 | 952.5 | |
| 20260506101314 | 74 | 0.0 | 0.0 | 0.00 | 0.00 | 0.00 | 38 | 952.4 | |
| 20260506100814 | 74 | 0.0 | 0.0 | 0.00 | 0.00 | 0.00 | 38 | 952.5 | |
| 20260506100314 | 74 | 0.0 | 0.0 | 0.00 | 0.00 | 0.00 | 37 | 952.5 | |
| 20260506095814 | 75 | 0.0 | 0.0 | 0.00 | 0.00 | 0.00 | 36 | 952.5 | |
| 20260506095314 | 75 | 0.0 | 0.0 | 0.00 | 0.00 | 0.00 | 37 | 952.7 | |
| 20260506094814 | 75 | 0.0 | 0.0 | 0.00 | 0.00 | 0.00 | 36 | 952.5 | |
| 20260506094314 | 74 | 0.0 | 0.0 | 0.00 | 0.00 | 0.00 | 37 | 952.7 | |
| 20260506093814 | 75 | 0.0 | 0.0 | 0.00 | 0.00 | 0.00 | 36 | 952.8 | |
| 20260506093314 | 74 | 0.0 | 0.0 | 0.00 | 0.00 | 0.00 | 36 | 952.7 | |
| 20260506092814 | 75 | 0.0 | 0.0 | 0.00 | 0.00 | 0.00 | 35 | 953.0 | |
| 20260506092314 | 76 | 0.0 | 0.0 | 0.00 | 0.00 | 0.00 | 35 | 953.2 | |
| 20260506091814 | 74 | 0.0 | 0.0 | 0.00 | 0.00 | 0.00 | 36 | 953.2 | |
| 20260506091314 | 74 | 0.0 | 0.0 | 0.00 | 0.00 | 0.00 | 37 | 953.1 | |
| 20260506090814 | 74 | 0.0 | 0.0 | 0.00 | 0.00 | 0.00 | 36 | 953.3 | |
| 20260506090314 | 75 | 0.0 | 0.0 | 0.00 | 0.00 | 0.00 | 37 | 953.3 | |
| 20260506085814 | 75 | 0.0 | 0.0 | 0.00 | 0.00 | 0.00 | 36 | 953.5 | |
| 20260506085314 | 76 | 0.0 | 0.0 | 0.00 | 0.00 | 0.00 | 35 | 953.5 | |
| 20260506084814 | 75 | 0.0 | 0.0 | 0.00 | 0.00 | 0.00 | 35 | 953.3 | |
| 20260506084314 | 74 | 0.0 | 0.0 | 0.00 | 0.00 | 0.00 | 37 | 953.3 | |
| 20260506083814 | 74 | 0.0 | 0.0 | 0.00 | 0.00 | 0.00 | 37 | 953.3 | |
| 20260506083314 | 74 | 0.0 | 0.0 | 0.00 | 0.00 | 0.00 | 36 | 953.4 | |
| 20260506082814 | 76 | 0.0 | 0.0 | 0.00 | 0.00 | 0.00 | 37 | 953.5 | |
| 20260506082314 | 76 | 0.0 | 0.0 | 0.00 | 0.00 | 0.00 | 37 | 953.5 | |
| 20260506081814 | 76 | 0.0 | 0.0 | 0.00 | 0.00 | 0.00 | 37 | 953.7 | |
| 20260506081314 | 76 | 0.0 | 0.0 | 0.00 | 0.00 | 0.00 | 36 | 953.7 | |
| 20260506080814 | 76 | 0.0 | 0.0 | 0.00 | 0.00 | 0.00 | 37 | 953.7 | |
| 20260506080314 | 75 | 0.0 | 0.0 | 0.00 | 0.00 | 0.00 | 38 | 953.8 | |
| 20260506073146 | 75 | 0.0 | 0.0 | 0.00 | 0.00 | 0.00 | 38 | 954.0 | |
| 20260506072646 | 74 | 0.0 | 0.0 | 0.00 | 0.00 | 0.00 | 39 | 954.1 | |
| 20260506072146 | 74 | 0.0 | 0.0 | 0.00 | 0.00 | 0.00 | 38 | 954.1 | |
| 20260506071646 | 74 | 0.0 | 0.0 | 0.00 | 0.00 | 0.00 | 39 | 954.1 | |
| 20260506071146 | 75 | 0.0 | 0.0 | 0.00 | 0.00 | 0.00 | 39 | 954.1 | |
| 20260506070646 | 73 | 0.0 | 0.0 | 0.00 | 0.00 | 0.00 | 40 | 954.2 | |
| 20260506070146 | 74 | 0.0 | 0.0 | 0.00 | 0.00 | 0.00 | 40 | 954.2 |